Regional Weather Roundup
Issued by NWS

Home | Current Version | Previous Version | Text Only | Print | Product List | Glossary On
Versions: 1 2 3 4 5 6 7 8 9 10 11 12 13 14 15 16 17 18 19 20 21 22 23 24 25 26 27 28 29 30 31 32 33 34 35 36 37 38 39 40 41 42 43 44 45 46 47 48 49 50
000
ASUS43 KTOP 151659
RWRKS

WEATHER ROUNDUP FOR KANSAS
NATIONAL WEATHER SERVICE GOODLAND KS
1100 AM CST FRI DEC 15 2017

NOTE:  "FAIR" INDICATES FEW OR NO CLOUDS BELOW 12,000 FEET WITH NO
SIGNIFICANT WEATHER AND/OR OBSTRUCTIONS TO VISIBILITY.

KSZ001>006-013>018-027>032-041>047-151800-
NORTHWEST KANSAS

CITY           SKY/WX    TMP DP  RH WIND       PRES   REMARKS
GOODLAND       SUNNY     45  19  35 SW14      30.03F
HAYS           SUNNY     39  24  55 W14       30.12S WCI  31
HILL CITY      SUNNY     42  27  55 W12G21    30.07F
RUSSELL        SUNNY     37  25  61 SW15      30.11S WCI  28
$$

KSZ061>065-074>080-084>089-151800-
SOUTHWEST KANSAS

CITY           SKY/WX    TMP DP  RH WIND       PRES   REMARKS
DODGE CITY     SUNNY     43  24  47 SW15      30.13F
GARDEN CITY    SUNNY     39  22  50 SW13      30.12F WCI  31
GREAT BEND     SUNNY     39  22  50 SW14      30.14F WCI  31
LIBERAL        SUNNY     40  25  55 SW16      30.16F WCI  31
$$

KSZ066>073-081>083-090>101-151800-
SOUTHEAST KANSAS

CITY           SKY/WX    TMP DP  RH WIND       PRES   REMARKS
CHANUTE        SUNNY     41  28  60 W10       30.22R
COFFEYVILLE    SUNNY     44  29  55 W10       30.24S
HUTCHINSON     SUNNY     40  27  59 SW12      30.17F WCI  33
MEDICINE LODGE   N/A     40  28  62 SW6       30.20F
NEWTON         SUNNY     38  27  64 SW10      30.19S WCI  31
PARSONS        SUNNY     43  29  57 W10       30.24R
WICHITA INTL   SUNNY     42  30  62 SW10      30.20S
WICHITA JABRA  SUNNY     41  29  62 SW10      30.20S
WICHITA MCCONL SUNNY     42  28  58 SW9       30.20S
WINFIELD       SUNNY     41  29  62 SW7       30.24F
$$

KSZ007>012-019>026-033>040-048>060-102>105-151800-
NORTHEAST KANSAS

CITY           SKY/WX    TMP DP  RH WIND       PRES   REMARKS
CONCORDIA      SUNNY     36  29  75 SW12      30.12S WCI  28
EMPORIA        SUNNY     39  24  55 W8        30.18F
LAWRENCE       SUNNY     42  25  50 SW9       30.16F
MANHATTAN      SUNNY     40  25  55 SW10      30.15F WCI  33
OLATHE IND     SUNNY     40  26  57 W8        30.17S
OLATHE EXE     SUNNY     38  25  59 NW9       30.16S
SALINA         SUNNY     40  28  62 S13       30.16F WCI  32
TOPEKA BILLARD SUNNY     40  27  59 SW8       30.17S
TOPEKA FORBES  SUNNY     42  25  50 SW10      30.16F
$$



USA.gov is the U.S. government's official web portal to all federal, state and local government web resources and services.